C/2001 S1 (Skiff) 

T 2001 June 2.54935 TT                                  Nakano

q   3.7500432            (2000.0)            P               Q

z  +0.0181682      Peri.  285.19248     +0.59088358     +0.73794725

 +/-0.0002694      Node   330.11246     +0.71190024     -0.66705603

e   0.9318684      Incl.  139.13569     -0.37954532     -0.10232357

From 33 observations 2001 Sept. 26-Nov. 15.

Residuals in seconds of arc 

2001/                     010927 649  0.2-  0.2-    011012 360  0.3+  1.2-  

010926 699  1.2-  0.3-    010927 649  0.5-  0.2-    011014 402  0.8+  0.2+  

010926 699  0.7+  1.0+    010927 649  0.5+  0.1+    011014 402  0.4-  1.5+  

010926 699  0.0   1.2+    010928 711  0.5-  0.5-    011014 402  0.7+  1.5+  

010926 699  1.9+  0.7+    010928 711  0.2+  0.4+    011023 402 (2.4+  2.2+) 

010926 413  0.2+  0.5-    010928 711  0.8-  0.8+    011023 402  1.2+  1.8+  

010926 413  0.2+  0.4-    010929 649  0.5-  1.1-    011024 360  1.1-  0.4-  

010926 413  0.2-  0.4-    010929 649  0.7-  0.1+    011024 360  0.9-  0.3-  

010926 413  0.1-  0.6-    010929 711  0.8+  0.0     011024 360  0.1-  0.9-  

010926 413  0.7-  0.7-    010929 711  0.5+  1.0+    011115 474  0.6+  0.7+  

010927 699 (3.8+  5.7+)   010929 649  0.2-  0.1-    011115 474  0.4-  0.8-  

010927 699 (3.3+  4.9+)   010929 711  0.2+  0.2-    011115 474 (3.8+  1.0+) 

010927 699 (0.5-  4.2+)   011012 360  0.4-  0.9-    

010927 699 (0.6+  2.7+)   011012 360  0.2+  1.3-    



NAKANO

         **** Don't distribute anyone except personal use only ****

                (C) Copyright 2001 OAA/ComputingSection

write mail from CFAD0::NAKANO on 2001-11-27 01:14:55(JST).

 

    C/2001 S1 (Skiff) 

T 2001 June 2.57528 TT                                  Nakano

q   3.7500379            (2000.0)            P               Q

z  +0.0183163      Peri.  285.20317     +0.59097632     +0.73788590

 +/-0.0008821      Node   330.11653     +0.71180811     -0.66713902

e   0.9313133      Incl.  139.13401     -0.37957371     -0.10222487

From 32 observations 2001 Sept. 26-Oct. 24.



NAKANO

         **** Don't distribute anyone except personal use only ****

                (C) Copyright 2001 OAA/ComputingSection

write mail from CFAD0::NAKANO on 2001-10-29 22:52:42(JST).

 



◎C/2001 S1の軌道と予報位置です



 彗星は,周期が400年ほどの長周期彗星でした.10月の CCD全光度は,

12日に19.0等(中村彰正),14日に19.2等,23日に18.6等(杉江淳),

24日に19.3等(中村)でした.



    C/2001 S1 (Skiff) 

T 2001 June 2.57528 TT                                  Nakano

q   3.7500379            (2000.0)            P               Q

z  +0.0183163      Peri.  285.20317     +0.59097632     +0.73788590

 +/-0.0008821      Node   330.11653     +0.71180811     -0.66713902

e   0.9313133      Incl.  139.13401     -0.37957371     -0.10222487

From 32 observations 2001 Sept. 26-Oct. 24.



 

Date/        TT  R.A.(2000) Decl.     Delta   r     Daily motion  Mag.  Moon Age

              h    h  m       。  ,                      ,  / PA 。  m1      。

2001 Oct. 30 13  01 03.41  -32 47.7   3.251  3.962    27.7 / 273  18.5   35  .97

          31 13  01 01.22  -32 46.3   3.263  3.965    27.4 / 274  18.6   42  .99

     Nov.  1 13  00 59.05  -32 44.5   3.276  3.968    27.1 / 274  18.6   52 1.00

           2 13  00 56.92  -32 42.4   3.289  3.970    26.8 / 275  18.6   62  .98

           3 13  00 54.80  -32 39.9   3.302  3.973    26.4 / 276  18.6   73  .94

           4 13  00 52.72  -32 37.2   3.316  3.976    26.1 / 277  18.6   85  .89

           5 13  00 50.67  -32 34.1   3.330  3.979    25.8 / 277  18.6   97  .81

           6 13  00 48.65  -32 30.7   3.344  3.982    25.4 / 278  18.6  109  .71

           7 13  00 46.66  -32 27.0   3.359  3.984    25.1 / 279  18.6  121  .61

           8 13  00 44.70  -32 23.0   3.374  3.987    24.8 / 280  18.6  133  .50

           9 13  00 42.78  -32 18.8   3.389  3.990    24.4 / 281  18.7  143  .38

          10 13  00 40.88  -32 14.2   3.405  3.993    24.1 / 281  18.7  150  .28

          11 13  00 39.03  -32 09.5   3.421  3.996    23.7 / 282  18.7  152  .18

          12 13  00 37.20  -32 04.4   3.437  3.999    23.4 / 283  18.7  147  .10

          13 13  00 35.41  -31 59.1   3.454  4.002    23.0 / 284  18.7  137  .04

          14 13  00 33.66  -31 53.6   3.471  4.005    22.7 / 285  18.7  126  .01

          15 13  00 31.94  -31 47.9   3.488  4.008    22.3 / 285  18.7  114  .00

          16 13  00 30.25  -31 41.9   3.505  4.011    21.9 / 286  18.8  101  .02

          17 13  00 28.60  -31 35.8   3.523  4.014    21.6 / 287  18.8   89  .06

          18 13  00 26.99  -31 29.4   3.541  4.017    21.2 / 288  18.8   77  .12

          19 13  00 25.41  -31 22.9   3.559  4.020    20.9 / 289  18.8   66  .19

          20 13  00 23.87  -31 16.1   3.577  4.023    20.5 / 290  18.8   55  .28

          21 13  00 22.37  -31 09.3   3.596  4.026    20.2 / 290  18.8   44  .37

          22 13  00 20.89  -31 02.2   3.614  4.029    19.8 / 291  18.8   35  .46

          23 13  00 19.46  -30 55.0   3.633  4.032    19.5 / 292  18.9   28  .55

          24 13  00 18.06  -30 47.6   3.652  4.035    19.1 / 293  18.9   25  .65

          25 13  00 16.69  -30 40.1   3.672  4.038    18.8 / 294  18.9   26  .73

          26 13  00 15.36  -30 32.5   3.691  4.041    18.5 / 295  18.9   33  .81

          27 13  00 14.07  -30 24.8   3.711  4.044    18.1 / 296  18.9   42  .88

          28 13  00 12.81  -30 16.9   3.731  4.048    17.8 / 297  18.9   52  .94

          29 13  00 11.58  -30 08.9   3.751  4.051    17.5 / 297  18.9   64  .98

          30 13  00 10.38  -30 00.9   3.771  4.054    17.2 / 298  19.0   76 1.00

     Dec.  1 13  00 09.22  -29 52.7   3.791  4.057    16.8 / 299  19.0   88  .99

NAKANO

         **** Don't distribute anyone except personal use only ****

                (C) Copyright 2001 OAA/ComputingSection

write mail from CFAD0::NAKANO on 2001-10-29 22:10:41(JST).

 



◎C/2001 S1の軌道と予報位置です



 10月の MPC締切り以後に報告された観測は,久万の中村彰正氏のみです.

12日の氏の CCD全光度は,19.0等ですが,17等級の報告もあります.



    C/2001 S1 (Skiff) 

T 2001 June 10.19872 TT                                 Nakano

q   3.7815398            (2000.0)            P               Q

                   Peri.  286.15512     +0.60693161     +0.72358933

                   Node   329.75598     +0.69759531     -0.68319704

e   1.0            Incl.  139.26067     -0.38078183     -0.09828677

From 24 observations 2001 Sept. 26-Oct. 12.

 

Date/        TT  R.A.(2000) Decl.     Delta   r     Daily motion  Mag.  Moon Age

              h    h  m       。  ,                      ,  / PA 。  m1      。

2001 Oct. 15 15  01 38.38  -32 24.3   3.140  3.945    31.0 / 262  17.4  146  .02

          16 15  01 35.95  -32 28.6   3.146  3.947    30.9 / 262  17.5  144  .00

          17 15  01 33.53  -32 32.6   3.152  3.950    30.7 / 263  17.5  137  .01

          18 15  01 31.12  -32 36.2   3.159  3.952    30.6 / 264  17.5  127  .05

          19 15  01 28.71  -32 39.3   3.166  3.955    30.4 / 265  17.5  116  .10

          20 15  01 26.32  -32 42.1   3.174  3.957    30.2 / 265  17.5  105  .18

          21 15  01 23.93  -32 44.4   3.182  3.960    30.0 / 266  17.5   94  .26

          22 15  01 21.56  -32 46.4   3.191  3.963    29.8 / 267  17.5   83  .36

          23 15  01 19.20  -32 47.9   3.200  3.965    29.5 / 268  17.5   72  .45

          24 15  01 16.86  -32 49.1   3.209  3.968    29.3 / 268  17.5   62  .55

          25 15  01 14.53  -32 49.8   3.219  3.971    29.1 / 269  17.5   52  .64

          26 15  01 12.23  -32 50.2   3.229  3.973    28.8 / 270  17.5   43  .73

          27 15  01 09.94  -32 50.3   3.240  3.976    28.5 / 271  17.5   36  .81

          28 15  01 07.68  -32 49.9   3.251  3.979    28.3 / 271  17.6   32  .88

          29 15  01 05.44  -32 49.2   3.263  3.981    28.0 / 272  17.6   32  .93

          30 15  01 03.22  -32 48.1   3.274  3.984    27.7 / 273  17.6   36  .97

          31 15  01 01.03  -32 46.7   3.287  3.987    27.4 / 274  17.6   43  .99

     Nov.  1 15  00 58.86  -32 44.9   3.299  3.990    27.1 / 274  17.6   52 1.00

           2 15  00 56.72  -32 42.8   3.312  3.992    26.8 / 275  17.6   63  .98

           3 15  00 54.61  -32 40.3   3.326  3.995    26.4 / 276  17.6   74  .94

           4 15  00 52.53  -32 37.6   3.340  3.998    26.1 / 277  17.6   86  .88

           5 15  00 50.48  -32 34.5   3.354  4.001    25.8 / 277  17.6   98  .80

           6 15  00 48.46  -32 31.1   3.368  4.004    25.4 / 278  17.7  110  .71

           7 15  00 46.47  -32 27.4   3.383  4.007    25.1 / 279  17.7  122  .60

           8 15  00 44.51  -32 23.5   3.398  4.009    24.8 / 280  17.7  134  .49

           9 15  00 42.59  -32 19.2   3.413  4.012    24.4 / 281  17.7  144  .37

          10 15  00 40.70  -32 14.7   3.429  4.015    24.1 / 281  17.7  151  .27

          11 15  00 38.84  -32 10.0   3.445  4.018    23.7 / 282  17.7  152  .17

          12 15  00 37.01  -32 04.9   3.462  4.021    23.4 / 283  17.7  146  .09

          13 15  00 35.22  -31 59.7   3.478  4.024    23.0 / 284  17.8  136  .04

          14 15  00 33.47  -31 54.2   3.495  4.027    22.6 / 284  17.8  125  .01

          15 15  00 31.75  -31 48.5   3.512  4.030    22.3 / 285  17.8  113  .00

NAKANO

         **** Don't distribute anyone except personal use only ****

                (C) Copyright 2001 OAA/ComputingSection

write mail from CFAD0::NAKANO on 2001-10-16 04:11:43(JST).

 



戻ります。